• In Uzbekistan
  • List of Countries
  • For 7 days
  • Water Temperature
  • Satellite Maps
  • Weather Map
  • Weather Widgets
  • user-avatar
    Login

    Hourly Weather Verhniy Suyan

    Today, 21 May, Monday

    Time Temperature Precipitation Wind Pressure Humidity
    00:00 +13°C° 0 mm 3 mps 747 mmHg 95%
    01:00 +13°C° 0 mm 3 mps 748 mmHg 95%
    02:00 +13°C° 0 mm 2 mps 748 mmHg 94%
    03:00 +13°C° 0 mm 2 mps 749 mmHg 93%
    04:00 +13°C° 0 mm 2 mps 749 mmHg 93%
    05:00 +12°C° 0.1 mm 2 mps 749 mmHg 92%
    06:00 +11°C° 0.1 mm 3 mps 750 mmHg 90%
    07:00 +11°C° 0.1 mm 3 mps 750 mmHg 89%
    08:00 +11°C° 0 mm 3 mps 751 mmHg 85%
    09:00 +11°C° 0 mm 3 mps 751 mmHg 82%
    10:00 +11°C° 0 mm 3 mps 752 mmHg 78%
    11:00 +12°C° 0 mm 3 mps 752 mmHg 75%
    12:00 +12°C° 0 mm 3 mps 752 mmHg 71%
    13:00 +12°C° 0 mm 3 mps 753 mmHg 68%
    14:00 +13°C° 0 mm 3 mps 753 mmHg 63%
    15:00 +13°C° 0 mm 3 mps 753 mmHg 59%
    16:00 +14°C° 0 mm 3 mps 753 mmHg 54%
    17:00 +14°C° 0 mm 3 mps 753 mmHg 55%
    18:00 +14°C° 0 mm 2 mps 754 mmHg 56%
    19:00 +14°C° 0 mm 2 mps 754 mmHg 57%
    20:00 +13°C° 0 mm 2 mps 754 mmHg 60%
    21:00 +10°C° 0 mm 2 mps 755 mmHg 63%
    22:00 +8°C° 0 mm 2 mps 755 mmHg 65%
    23:00 +8°C° 0 mm 2 mps 755 mmHg 67%

    Tomorrow, 22 May, Tuesday

    Time Temperature Precipitation Wind Pressure Humidity
    00:00 +7°C° 0 mm 2 mps 756 mmHg 68%
    01:00 +8°C° 0 mm 1 mps 756 mmHg 69%
    02:00 +8°C° 0 mm 1 mps 756 mmHg 70%
    03:00 +7°C° 0 mm 1 mps 757 mmHg 72%
    04:00 +7°C° 0 mm 1 mps 757 mmHg 73%
    05:00 +9°C° 0 mm 1 mps 757 mmHg 69%
    06:00 +10°C° 0 mm 2 mps 757 mmHg 64%
    07:00 +13°C° 0 mm 2 mps 757 mmHg 60%
    08:00 +14°C° 0 mm 3 mps 757 mmHg 56%
    09:00 +17°C° 0 mm 4 mps 757 mmHg 52%
    10:00 +19°C° 0 mm 5 mps 757 mmHg 48%
    11:00 +19°C° 0 mm 5 mps 757 mmHg 46%
    12:00 +20°C° 0 mm 5 mps 756 mmHg 44%
    13:00 +21°C° 0 mm 5 mps 756 mmHg 43%
    14:00 +22°C° 0 mm 5 mps 756 mmHg 43%
    15:00 +22°C° 0 mm 5 mps 756 mmHg 43%
    16:00 +23°C° 0 mm 5 mps 756 mmHg 43%
    17:00 +22°C° 0 mm 5 mps 756 mmHg 49%
    18:00 +21°C° 0 mm 4 mps 756 mmHg 54%
    19:00 +20°C° 0 mm 3 mps 756 mmHg 60%
    20:00 +19°C° 0 mm 3 mps 756 mmHg 65%
    21:00 +17°C° 0 mm 3 mps 756 mmHg 71%
    22:00 +16°C° 0 mm 3 mps 756 mmHg 76%
    23:00 +15°C° 0 mm 2 mps 756 mmHg 79%

    Day after tomorrow, 23 May, Wednesday

    Time Temperature Precipitation Wind Pressure Humidity
    00:00 +14°C° 0 mm 2 mps 756 mmHg 82%
    01:00 +14°C° 0 mm 2 mps 757 mmHg 84%
    02:00 +13°C° 0 mm 1 mps 757 mmHg 86%
    03:00 +13°C° 0 mm 1 mps 757 mmHg 88%
    04:00 +12°C° 0 mm 1 mps 757 mmHg 90%
    05:00 +14°C° 0 mm 1 mps 757 mmHg 83%
    06:00 +16°C° 0 mm 1 mps 758 mmHg 76%
    07:00 +19°C° 0 mm 1 mps 758 mmHg 69%
    08:00 +20°C° 0 mm 2 mps 758 mmHg 63%
    09:00 +22°C° 0 mm 3 mps 758 mmHg 57%
    10:00 +24°C° 0 mm 3 mps 758 mmHg 51%
    11:00 +25°C° 0 mm 4 mps 757 mmHg 49%
    12:00 +26°C° 0 mm 4 mps 757 mmHg 46%
    13:00 +27°C° 0 mm 5 mps 756 mmHg 43%
    14:00 +27°C° 0 mm 5 mps 756 mmHg 45%
    15:00 +27°C° 0 mm 5 mps 756 mmHg 46%
    16:00 +26°C° 0 mm 5 mps 755 mmHg 47%
    17:00 +25°C° 0 mm 5 mps 755 mmHg 52%
    18:00 +23°C° 0 mm 4 mps 755 mmHg 58%
    19:00 +22°C° 0 mm 3 mps 755 mmHg 63%
    20:00 +20°C° 0 mm 3 mps 754 mmHg 68%
    21:00 +19°C° 0 mm 3 mps 754 mmHg 73%
    22:00 +17°C° 0 mm 3 mps 754 mmHg 78%
    23:00 +17°C° 0 mm 3 mps 754 mmHg 78%

    24 May, Thursday

    Time Temperature Precipitation Wind Pressure Humidity
    00:00 +17°C° 0 mm 3 mps 753 mmHg 78%
    01:00 +17°C° 0 mm 3 mps 753 mmHg 78%
    02:00 +17°C° 0 mm 3 mps 753 mmHg 78%
    03:00 +16°C° 0 mm 3 mps 752 mmHg 77%
    04:00 +16°C° 0 mm 3 mps 752 mmHg 77%
    05:00 +17°C° 0 mm 4 mps 752 mmHg 73%
    06:00 +18°C° 0 mm 4 mps 751 mmHg 70%
    07:00 +19°C° 0 mm 5 mps 751 mmHg 66%
    08:00 +20°C° 0 mm 5 mps 751 mmHg 61%
    09:00 +21°C° 0 mm 6 mps 750 mmHg 56%
    10:00 +23°C° 0 mm 6 mps 750 mmHg 51%
    11:00 +23°C° 0 mm 7 mps 749 mmHg 51%
    12:00 +23°C° 0 mm 7 mps 749 mmHg 52%
    13:00 +24°C° 0 mm 7 mps 748 mmHg 52%
    14:00 +23°C° 0.2 mm 7 mps 748 mmHg 54%
    15:00 +23°C° 0.2 mm 7 mps 747 mmHg 56%
    16:00 +23°C° 0.2 mm 7 mps 747 mmHg 57%
    17:00 +22°C° 1.2 mm 6 mps 746 mmHg 66%
    18:00 +20°C° 1.2 mm 5 mps 746 mmHg 74%
    19:00 +19°C° 1.2 mm 4 mps 746 mmHg 83%
    20:00 +18°C° 0.5 mm 3 mps 745 mmHg 86%
    21:00 +17°C° 0.5 mm 3 mps 745 mmHg 89%
    22:00 +16°C° 0.5 mm 2 mps 745 mmHg 93%
    23:00 +16°C° 0.1 mm 2 mps 745 mmHg 94%

    25 May, Friday

    Time Temperature Precipitation Wind Pressure Humidity
    00:00 +15°C° 0.1 mm 1 mps 745 mmHg 95%
    01:00 +15°C° 0.1 mm 1 mps 744 mmHg 96%
    02:00 +15°C° 1.4 mm 1 mps 744 mmHg 96%
    03:00 +15°C° 1.4 mm 1 mps 744 mmHg 97%
    04:00 +14°C° 1.4 mm 1 mps 744 mmHg 97%
    05:00 +14°C° 0.2 mm 2 mps 744 mmHg 95%
    06:00 +14°C° 0.2 mm 2 mps 744 mmHg 94%
    07:00 +13°C° 0.2 mm 3 mps 743 mmHg 92%
    08:00 +14°C° 0.1 mm 3 mps 743 mmHg 90%
    09:00 +14°C° 0.1 mm 3 mps 743 mmHg 88%
    10:00 +14°C° 0.1 mm 3 mps 743 mmHg 85%
    11:00 +14°C° 0.5 mm 4 mps 743 mmHg 85%
    12:00 +14°C° 0.5 mm 4 mps 743 mmHg 84%
    13:00 +14°C° 0.5 mm 4 mps 743 mmHg 84%
    14:00 +13°C° 0.9 mm 5 mps 743 mmHg 86%
    15:00 +10°C° 0.9 mm 5 mps 743 mmHg 88%
    16:00 +9°C° 0.9 mm 5 mps 743 mmHg 90%
    17:00 +9°C° 0.4 mm 6 mps 743 mmHg 90%
    18:00 +8°C° 0.4 mm 6 mps 743 mmHg 90%
    19:00 +7°C° 0.4 mm 6 mps 743 mmHg 89%
    20:00 +5°C° 0.2 mm 6 mps 743 mmHg 89%
    21:00 +5°C° 0.2 mm 6 mps 743 mmHg 89%
    22:00 +4°C° 0.2 mm 6 mps 743 mmHg 88%
    23:00 +4°C° 0.3 mm 6 mps 743 mmHg 88%

    26 May, Saturday

    Time Temperature Precipitation Wind Pressure Humidity
    00:00 +4°C° 0.3 mm 6 mps 743 mmHg 89%
    01:00 +4°C° 0.3 mm 6 mps 743 mmHg 89%
    02:00 +4°C° 0.4 mm 6 mps 743 mmHg 89%
    03:00 +4°C° 0.4 mm 7 mps 743 mmHg 89%
    04:00 +4°C° 0.4 mm 7 mps 743 mmHg 90%
    05:00 +4°C° 0.9 mm 7 mps 743 mmHg 89%
    06:00 +4°C° 0.9 mm 8 mps 743 mmHg 89%
    07:00 +4°C° 0.9 mm 8 mps 743 mmHg 88%
    08:00 +3°C° 0.6 mm 9 mps 743 mmHg 86%
    09:00 +3°C° 0.6 mm 9 mps 743 mmHg 84%
    10:00 +3°C° 0.6 mm 9 mps 743 mmHg 82%
    11:00 +3°C° 0.8 mm 9 mps 744 mmHg 83%
    12:00 +3°C° 0.8 mm 9 mps 744 mmHg 83%
    13:00 +3°C° 0.8 mm 9 mps 744 mmHg 83%
    14:00 +4°C° 0.7 mm 8 mps 745 mmHg 84%
    15:00 +4°C° 0.7 mm 8 mps 745 mmHg 85%
    16:00 +4°C° 0.7 mm 8 mps 745 mmHg 87%
    17:00 +4°C° 0.7 mm 7 mps 745 mmHg 87%
    18:00 +4°C° 0.7 mm 7 mps 745 mmHg 88%
    19:00 +4°C° 0.7 mm 7 mps 745 mmHg 89%
    20:00 +4°C° 0.6 mm 6 mps 745 mmHg 89%
    21:00 +4°C° 0.6 mm 6 mps 746 mmHg 89%
    22:00 +3°C° 0.6 mm 6 mps 746 mmHg 90%
    23:00 +3°C° 0.5 mm 6 mps 746 mmHg 90%
    Show more